Weather History for Lexington, NE

Change the Weather History Date:

Wednesday, May 13, 2009

  Actual Average Record
Temperature  
Mean Temperature 63 °F -  
Max Temperature 69 °F 68 °F 92 °F (2013)
Min Temperature 57 °F 44 °F 33 °F (1997)
Degree Days  
Heating Degree Days 2    
Growing Degree Days 13 (Base 50)    
Moisture  
Dew Point 47 °F    
Average Humidity 63    
Maximum Humidity 100    
Minimum Humidity 18    
Precipitation  
Precipitation 0.14 in - - ()
Sea Level Pressure  
Sea Level Pressure 29.71 in    
Wind  
Wind Speed 15 mph (NNW)    
Max Wind Speed 31 mph    
Max Gust Speed 43 mph    
Visibility 8 miles    
Events Rain , Thunderstorm    
Averages and records for this station are not official NWS values.
T = Trace of Precipitation, MM = Missing Value Source: NWS Daily Summary

Daily Weather History Graph

Daily Weather History Graph

Search for Another Location

Airport:

Trip Planner

Search our weather history database for the weather conditions in past years. The results will help you decide how hot, cold, wet, or windy it might be!

Date:

Astronomy

May. 13, 2009 Rise Set
Actual Time 6:23 AM CDT 8:47 PM CDT
Civil Twilight 5:52 AM CDT 9:19 PM CDT
Nautical Twilight 5:14 AM CDT 9:57 PM CDT
Astronomical Twilight 4:31 AM CDT 10:40 PM CDT
Moon 12:27 AM CDT (5/13) 9:35 AM CDT (5/13)
Length of Visible Light 15h 26m
Length of Day
14h 24m
Waning Gibbous, 82% of the Moon is Illuminated
May 13
Waning Gibbous
May 17
Last Quarter
May 24
New
May 30
First Quarter
Jun 7
Full

Hourly Weather History & Observations

Time (CDT) Temp. Windchill Dew Point Humidity Pressure Visibility Wind Dir Wind Speed Gust Speed Precip Events Conditions
12:10 AM 62.6 °F - 60.8 °F 94% 29.50 in 7.0 mi SE 20.7 mph - N/A   Overcast
12:30 AM 62.6 °F - 60.8 °F 94% 29.49 in 7.0 mi SE 19.6 mph 25.3 mph N/A   Overcast
12:50 AM 62.6 °F - 60.8 °F 94% 29.49 in 7.0 mi SSE 19.6 mph 25.3 mph N/A   Overcast
1:10 AM 62.6 °F - 60.8 °F 94% 29.53 in 7.0 mi WSW 5.8 mph 11.5 mph N/A   Mostly Cloudy
1:30 AM 64.4 °F - 60.8 °F 88% 29.53 in 7.0 mi West 8.1 mph - 0.01 in Rain , Thunderstorm Rain
1:50 AM 62.6 °F - 60.8 °F 94% 29.54 in 5.0 mi North 8.1 mph - 0.06 in Rain , Thunderstorm Light Thunderstorms and Rain
2:10 AM 62.6 °F - 60.8 °F 94% 29.53 in 4.0 mi Calm Calm - N/A   Light Drizzle
2:30 AM 62.6 °F - 60.8 °F 94% 29.55 in 4.0 mi NE 8.1 mph - N/A   Overcast
2:50 AM 62.6 °F - 60.8 °F 94% 29.55 in 3.0 mi East 5.8 mph - N/A   Overcast
3:10 AM 62.6 °F - 60.8 °F 94% 29.55 in 4.0 mi East 3.5 mph - 0.01 in Rain Rain
3:30 AM 62.6 °F - 60.8 °F 94% 29.55 in 5.0 mi NNE 6.9 mph - 0.01 in   Light Drizzle
3:50 AM 62.6 °F - 60.8 °F 94% 29.57 in 4.0 mi NE 10.4 mph - 0.07 in Rain Light Rain
4:10 AM 62.6 °F - 60.8 °F 94% 29.57 in 7.0 mi NNE 8.1 mph - N/A Rain Light Rain
4:30 AM 62.6 °F - 60.8 °F 94% 29.57 in 10.0 mi NNE 5.8 mph - N/A   Scattered Clouds
4:50 AM 60.8 °F - 59.0 °F 94% 29.57 in 7.0 mi North 8.1 mph - N/A   Clear
5:10 AM 59.0 °F - 59.0 °F 100% 29.57 in 7.0 mi NNE 8.1 mph - N/A   Clear
5:30 AM 59.0 °F - 57.2 °F 94% 29.57 in 5.0 mi NNE 4.6 mph - N/A   Clear
5:50 AM 57.2 °F - 55.4 °F 94% 29.58 in 4.0 mi North 6.9 mph - N/A   Scattered Clouds
6:30 AM 59.0 °F - 59.0 °F 100% 29.61 in 0.8 mi North 9.2 mph - 0.01 in   Overcast
6:50 AM 59.0 °F - 59.0 °F 100% 29.63 in 3.0 mi North 12.7 mph - 0.01 in   Overcast
7:10 AM 59.0 °F - 59.0 °F 100% 29.66 in 7.0 mi North 9.2 mph - N/A   Overcast
7:30 AM 59.0 °F - 57.2 °F 94% 29.66 in 10.0 mi NNE 10.4 mph 19.6 mph N/A   Overcast
7:50 AM 59.0 °F - 57.2 °F 94% 29.67 in 10.0 mi North 9.2 mph - N/A   Scattered Clouds
8:10 AM 59.0 °F - 53.6 °F 82% 29.68 in 10.0 mi North 13.8 mph 19.6 mph N/A   Clear
8:30 AM 59.0 °F - 51.8 °F 77% 29.69 in 10.0 mi North 13.8 mph - N/A   Clear
8:50 AM 59.0 °F - 50.0 °F 72% 29.69 in 10.0 mi NNE 15.0 mph - N/A   Clear
9:10 AM 59.0 °F - 50.0 °F 72% 29.69 in 10.0 mi North 17.3 mph - N/A   Clear
9:30 AM 60.8 °F - 48.2 °F 63% 29.70 in 10.0 mi NNE 13.8 mph - N/A   Clear
9:50 AM 60.8 °F - 48.2 °F 63% 29.71 in 10.0 mi North 15.0 mph - N/A   Clear
10:10 AM 60.8 °F - 50.0 °F 68% 29.73 in 10.0 mi North 10.4 mph - N/A   Clear
10:30 AM 60.8 °F - 48.2 °F 63% 29.74 in 10.0 mi North 13.8 mph - N/A   Clear
10:50 AM 60.8 °F - 50.0 °F 68% 29.75 in 10.0 mi NNW 15.0 mph - N/A   Clear
11:10 AM 62.6 °F - 51.8 °F 68% 29.76 in 10.0 mi NNW 12.7 mph - N/A   Clear
11:30 AM 62.6 °F - 50.0 °F 63% 29.76 in 10.0 mi NNW 15.0 mph - N/A   Clear
11:50 AM 62.6 °F - 50.0 °F 63% 29.77 in 10.0 mi NNW 13.8 mph - N/A   Clear
12:10 PM 64.4 °F - 50.0 °F 59% 29.77 in 10.0 mi NNW 15.0 mph - N/A   Clear
12:30 PM 64.4 °F - 48.2 °F 56% 29.76 in 10.0 mi NNW 13.8 mph 19.6 mph N/A   Clear
12:50 PM 66.2 °F - 46.4 °F 49% 29.77 in 10.0 mi NW 16.1 mph 20.7 mph N/A   Clear
1:10 PM 68.0 °F - 46.4 °F 46% 29.78 in 10.0 mi NW 16.1 mph 20.7 mph N/A   Clear
1:30 PM 68.0 °F - 46.4 °F 46% 29.78 in 10.0 mi NW 18.4 mph 23.0 mph N/A   Clear
1:50 PM 69.8 °F - 41.0 °F 35% 29.79 in 10.0 mi NW 26.5 mph 32.2 mph N/A   Clear
2:10 PM 69.8 °F - 41.0 °F 35% 29.79 in 10.0 mi NW 25.3 mph 29.9 mph N/A   Scattered Clouds
2:30 PM 69.8 °F - 33.8 °F 27% 29.80 in 10.0 mi NW 27.6 mph 36.8 mph N/A   Scattered Clouds
2:50 PM 69.8 °F - 32.0 °F 25% 29.81 in 10.0 mi NW 28.8 mph 39.1 mph N/A   Clear
3:10 PM 69.8 °F - 32.0 °F 25% 29.82 in 10.0 mi WNW 28.8 mph 39.1 mph N/A   Clear
3:30 PM 69.8 °F - 32.0 °F 25% 29.83 in 10.0 mi NW 27.6 mph 39.1 mph N/A   Clear
3:50 PM 69.8 °F - 30.2 °F 23% 29.85 in 10.0 mi NW 28.8 mph 39.1 mph N/A   Clear
4:10 PM 68.0 °F - 30.2 °F 24% 29.86 in 10.0 mi NW 28.8 mph 41.4 mph N/A   Clear
4:30 PM 68.0 °F - 28.4 °F 23% 29.87 in 10.0 mi NW 29.9 mph 42.6 mph N/A   Clear
4:50 PM 68.0 °F - 28.4 °F 23% 29.88 in 10.0 mi NNW 29.9 mph 40.3 mph N/A   Clear
5:10 PM 68.0 °F - 24.8 °F 20% 29.88 in 10.0 mi NW 23.0 mph 32.2 mph N/A   Clear
5:30 PM 68.0 °F - 26.6 °F 21% 29.89 in 10.0 mi NNW 23.0 mph 34.5 mph N/A   Clear
5:50 PM 66.2 °F - 21.2 °F 18% 29.90 in 10.0 mi NNW 31.1 mph 35.7 mph N/A   Clear
6:10 PM 64.4 °F - 23.0 °F 21% 29.90 in 10.0 mi NNW 23.0 mph 33.4 mph N/A   Clear
6:30 PM 64.4 °F - 21.2 °F 19% 29.92 in 10.0 mi NW 23.0 mph 33.4 mph N/A   Clear
6:50 PM 64.4 °F - 21.2 °F 19% 29.92 in 10.0 mi NNW 21.9 mph 27.6 mph N/A   Clear
7:10 PM 64.4 °F - 19.4 °F 18% 29.92 in 10.0 mi NNW 25.3 mph 31.1 mph N/A   Clear
7:30 PM 62.6 °F - 21.2 °F 20% 29.92 in 10.0 mi NNW 24.2 mph 28.8 mph N/A   Clear
7:50 PM 62.6 °F - 21.2 °F 20% 29.92 in 10.0 mi NNW 20.7 mph 28.8 mph N/A   Clear
8:10 PM 60.8 °F - 24.8 °F 25% 29.93 in 10.0 mi NNW 18.4 mph 21.9 mph N/A   Clear
8:30 PM 60.8 °F - 24.8 °F 25% 29.95 in 10.0 mi NNW 15.0 mph - N/A   Clear
8:50 PM 57.2 °F - 26.6 °F 31% 29.96 in 10.0 mi NNW 13.8 mph - N/A   Clear
9:10 PM 55.4 °F - 28.4 °F 36% 29.97 in 10.0 mi NNW 8.1 mph - N/A   Clear
9:30 PM 53.6 °F - 30.2 °F 41% 29.98 in 10.0 mi NNW 10.4 mph - N/A   Clear
9:50 PM 51.8 °F - 30.2 °F 44% 29.99 in 10.0 mi NW 9.2 mph - N/A   Clear
10:10 PM 50.0 °F - 32.0 °F 50% 30.01 in 10.0 mi NW 6.9 mph - N/A   Clear
10:30 PM 50.0 °F - 32.0 °F 50% 30.03 in 10.0 mi NW 8.1 mph - N/A   Clear
10:50 PM 48.2 °F - 32.0 °F 54% 30.03 in 10.0 mi NW 8.1 mph - N/A   Clear
11:10 PM 50.0 °F - 32.0 °F 50% 30.04 in 10.0 mi NNW 12.7 mph - N/A   Clear
11:30 PM 46.4 °F 44.3 °F 32.0 °F 57% 30.05 in 10.0 mi WNW 4.6 mph - N/A   Clear
11:50 PM 46.4 °F 45.2 °F 32.0 °F 57% 30.06 in 10.0 mi WNW 3.5 mph - N/A   Clear